Regional Weather Roundup
Issued by NWS Goodland, KS

Home | Current Version | Previous Version | Graphics & Text | Print | Product List | Glossary On
Versions: 1 2 3 4 5 6 7 8 9 10 11 12 13 14 15 16 17 18 19 20 21 22 23 24 25 26 27 28 29 30 31 32 33 34 35 36 37 38 39 40 41 42 43 44 45 46 47 48 49 50
000
ASUS43 KGLD 261808
RWRGLD

GOODLAND FORECAST AREA HOURLY WEATHER ROUNDUP
NATIONAL WEATHER SERVICE GOODLAND KS
1200 PM MDT FRI AUG 26 2016

...OFFICIAL OBSERVATIONS...

CITY           SKY/WX    TMP DP  RH WIND       PRES   REMARKS
GOODLAND KS    CLOUDY    72  56  57 SE10      30.11F
HILL CITY KS   CLOUDY    72  60  66 CALM      30.10F
IMPERIAL NEB   PTSUNNY   72  52  49 S12G22    30.11F
MCCOOK NEB     PTSUNNY   72  55  55 SE10      30.11F
AKRON CO       CLOUDY    64  56  75 SE12      30.14F
BURLINGTON CO  CLOUDY    68  55  63 S15       30.14F
LIMON CO       CLOUDY    68  51  54 S10       30.17F
$$

...UNOFFICIAL OBSERVATIONS...

CITY           SKY/WX    TMP DP  RH WIND       PRES   REMARKS
COLBY KS       PTSUNNY   73  61  64 E8        30.12F
LENORA KS        N/A     70  32  24 MISG        N/A
NORTON KS      MOSUNNY   73  54  49 E3        30.10F
SHARON SPRINGS   N/A     73  62  68 S9G17       N/A
TRENTON NEB      N/A     74  32  21 MISG        N/A
KIT CARSON CO    N/A     68  57  68 MISG        N/A
YUMA CO          N/A     64  59  85 CALM        N/A
$$




USA.gov is the U.S. government's official web portal to all federal, state and local government web resources and services.